Location: Gu�tanj
(46.5431°N, 14.9692°E)
Time: 15:21:45
(UTC+00:00)

CZ-2C R/B - Pass Details

Date: 03 March 2021
Orbit: 783 x 871 km, 98.2° (Epoch: 15 April)

Event Time Altitude Azimuth Distance (km) Brightness Sun altitude
Rises 18:00:13 0° 15° (NNE) 3,433 5.8 -13.0°
Reaches altitude 10° 18:02:39 10° 18° (NNE) 2,481 5.0 -13.4°
Maximum altitude 18:08:08 68° 102° (ESE) 895 2.6 -14.4°
Drops below altitude 10° 18:13:27 10° 185° (S) 2,406 5.1 -15.3°
Sets 18:15:46 0° 188° (S) 3,321 5.8 -15.7°
